28.03.2024;23:54;83,831;
28.03.2024;23:44;83,831;
28.03.2024;23:34;83,831;
28.03.2024;23:24;83,831;
28.03.2024;23:14;83,830;
28.03.2024;23:04;83,830;
28.03.2024;22:54;83,830;
28.03.2024;22:44;83,831;
28.03.2024;22:34;83,831;
28.03.2024;22:24;83,830;
28.03.2024;22:14;83,831;
28.03.2024;22:04;83,830;
28.03.2024;21:54;83,830;
28.03.2024;21:44;83,830;
28.03.2024;21:34;83,830;
28.03.2024;21:24;83,830;
28.03.2024;21:14;83,829;
28.03.2024;21:04;83,829;
28.03.2024;20:54;83,828;
28.03.2024;20:44;83,829;
28.03.2024;20:34;83,827;
28.03.2024;20:24;83,828;
28.03.2024;20:14;83,828;
28.03.2024;20:04;83,828;
28.03.2024;19:54;83,828;
28.03.2024;19:44;83,827;
28.03.2024;19:34;83,827;
28.03.2024;19:24;83,826;
28.03.2024;19:14;83,826;
28.03.2024;19:04;83,827;
28.03.2024;18:54;83,827;
28.03.2024;18:44;83,826;
28.03.2024;18:34;83,826;
28.03.2024;18:24;83,825;
28.03.2024;18:14;83,826;
28.03.2024;18:04;83,825;
28.03.2024;17:54;83,825;
28.03.2024;17:44;83,826;
28.03.2024;17:34;83,825;
28.03.2024;17:24;83,824;
28.03.2024;17:14;83,825;
28.03.2024;17:04;83,824;
28.03.2024;16:54;83,824;
28.03.2024;16:44;83,824;
28.03.2024;16:34;83,823;
28.03.2024;16:24;83,823;
28.03.2024;16:14;83,823;
28.03.2024;16:04;83,823;
28.03.2024;15:54;83,822;
28.03.2024;15:44;83,822;
28.03.2024;15:34;83,822;
28.03.2024;15:24;83,822;
28.03.2024;15:14;83,821;
28.03.2024;15:04;83,824;
28.03.2024;14:54;83,820;
28.03.2024;14:44;83,821;
28.03.2024;14:34;83,820;
28.03.2024;14:24;83,820;
28.03.2024;14:14;83,821;
28.03.2024;14:04;83,820;
28.03.2024;13:54;83,819;
28.03.2024;13:44;83,819;
28.03.2024;13:34;83,820;
28.03.2024;13:24;83,819;
28.03.2024;13:14;83,819;
28.03.2024;13:04;83,819;
28.03.2024;12:54;83,818;
28.03.2024;12:44;83,817;
28.03.2024;12:34;83,817;
28.03.2024;12:24;83,819;
28.03.2024;12:14;83,817;
28.03.2024;12:04;83,817;
28.03.2024;11:54;83,817;
28.03.2024;11:44;83,817;
28.03.2024;11:34;83,817;
28.03.2024;11:24;83,817;
28.03.2024;11:14;83,817;
28.03.2024;11:04;83,817;
28.03.2024;10:54;83,817;
28.03.2024;10:44;83,817;
28.03.2024;10:34;83,817;
28.03.2024;10:24;83,816;
28.03.2024;10:14;83,817;
28.03.2024;10:04;83,817;
28.03.2024;09:54;83,817;
28.03.2024;09:44;83,816;
28.03.2024;09:34;83,817;
28.03.2024;09:24;83,816;
28.03.2024;09:14;83,816;
28.03.2024;09:04;83,817;
28.03.2024;08:54;83,815;
28.03.2024;08:44;83,816;
28.03.2024;08:34;83,815;
28.03.2024;08:24;83,816;
28.03.2024;08:14;83,815;
28.03.2024;08:04;83,816;
28.03.2024;07:54;83,816;
28.03.2024;07:44;83,814;
28.03.2024;07:34;83,816;
28.03.2024;07:24;83,814;
28.03.2024;07:14;83,815;
28.03.2024;07:04;83,816;
28.03.2024;06:54;83,815;
28.03.2024;06:44;83,815;
28.03.2024;06:34;83,815;
28.03.2024;06:24;83,816;
28.03.2024;06:14;83,816;
28.03.2024;06:04;83,815;
28.03.2024;05:54;83,815;
28.03.2024;05:44;83,816;
28.03.2024;05:34;83,814;
28.03.2024;05:24;83,813;
28.03.2024;05:14;83,814;
28.03.2024;05:04;83,814;
28.03.2024;04:54;83,814;
28.03.2024;04:44;83,814;
28.03.2024;04:34;83,812;
28.03.2024;04:24;83,813;
28.03.2024;04:14;83,813;
28.03.2024;04:04;83,812;
28.03.2024;03:54;83,813;
28.03.2024;03:44;83,814;
28.03.2024;03:34;83,813;
28.03.2024;03:24;83,812;
28.03.2024;03:14;83,812;
28.03.2024;03:04;83,811;
28.03.2024;02:54;83,811;
28.03.2024;02:44;83,812;
28.03.2024;02:34;83,811;
28.03.2024;02:24;83,810;
28.03.2024;02:14;83,809;
28.03.2024;02:04;83,808;
28.03.2024;01:54;83,808;
28.03.2024;01:44;83,808;
28.03.2024;01:34;83,807;
28.03.2024;01:24;83,805;
28.03.2024;01:14;83,804;
28.03.2024;01:04;83,804;
28.03.2024;00:54;83,802;
28.03.2024;00:44;83,800;
28.03.2024;00:34;83,798;
28.03.2024;00:24;83,798;
28.03.2024;00:14;83,795;
28.03.2024;00:04;83,794;
27.03.2024;23:54;83,792;
27.03.2024;23:44;83,792;
27.03.2024;23:34;83,788;
27.03.2024;23:24;83,785;
27.03.2024;23:14;83,784;
27.03.2024;23:04;83,782;
27.03.2024;22:54;83,781;
27.03.2024;22:44;83,779;
27.03.2024;22:34;83,777;
27.03.2024;22:24;83,777;
27.03.2024;22:14;83,775;
27.03.2024;22:04;83,775;
27.03.2024;21:54;83,774;
27.03.2024;21:44;83,775;
27.03.2024;21:34;83,773;
27.03.2024;21:24;83,772;
27.03.2024;21:14;83,771;
27.03.2024;21:04;83,770;
27.03.2024;20:54;83,769;
27.03.2024;20:44;83,769;
27.03.2024;20:34;83,765;
27.03.2024;20:24;83,764;
27.03.2024;20:14;83,760;
27.03.2024;20:04;83,756;
27.03.2024;19:54;83,750;
27.03.2024;19:44;83,747;
27.03.2024;19:34;83,744;
27.03.2024;19:24;83,739;
27.03.2024;19:14;83,733;
27.03.2024;19:04;83,728;
27.03.2024;18:54;83,723;
27.03.2024;18:44;83,718;
27.03.2024;18:34;83,714;
27.03.2024;18:24;83,710;
27.03.2024;18:14;83,707;
27.03.2024;18:04;83,705;
27.03.2024;17:54;83,701;
27.03.2024;17:44;83,701;
27.03.2024;17:34;83,699;
27.03.2024;17:24;83,698;
27.03.2024;17:14;83,697;
27.03.2024;17:04;83,696;
27.03.2024;16:54;83,696;
27.03.2024;16:44;83,697;
27.03.2024;16:34;83,697;
27.03.2024;16:24;83,696;
27.03.2024;16:14;83,695;
27.03.2024;16:04;83,697;
27.03.2024;15:54;83,697;
27.03.2024;15:44;83,695;
27.03.2024;15:34;83,696;
27.03.2024;15:24;83,697;
27.03.2024;15:14;83,696;
27.03.2024;15:04;83,698;
27.03.2024;14:54;83,698;
27.03.2024;14:44;83,699;
27.03.2024;14:34;83,698;
27.03.2024;14:24;83,700;
27.03.2024;14:14;83,700;
27.03.2024;14:04;83,701;
27.03.2024;13:54;83,700;
27.03.2024;13:44;83,702;
27.03.2024;13:34;83,701;
27.03.2024;13:24;83,702;
27.03.2024;13:14;83,703;
27.03.2024;13:04;83,703;
27.03.2024;12:54;83,703;
27.03.2024;12:44;83,701;
27.03.2024;12:34;83,702;
27.03.2024;12:24;83,703;
27.03.2024;12:14;83,703;
27.03.2024;12:04;83,703;
27.03.2024;11:54;83,701;
27.03.2024;11:44;83,701;
27.03.2024;11:34;83,701;
27.03.2024;11:24;83,701;
27.03.2024;11:14;83,702;
27.03.2024;11:04;83,701;
27.03.2024;10:54;83,701;
27.03.2024;10:44;83,700;
27.03.2024;10:34;83,699;
27.03.2024;10:24;83,700;
27.03.2024;10:14;83,700;
27.03.2024;10:04;83,701;
27.03.2024;09:54;83,700;
27.03.2024;09:44;83,700;
27.03.2024;09:34;83,698;
27.03.2024;09:24;83,700;
27.03.2024;09:14;83,699;
27.03.2024;09:04;83,700;
27.03.2024;08:54;83,700;
27.03.2024;08:44;83,701;
27.03.2024;08:34;83,700;
27.03.2024;08:24;83,701;
27.03.2024;08:14;83,700;
27.03.2024;08:04;83,701;
27.03.2024;07:54;83,700;
27.03.2024;07:44;83,700;
27.03.2024;07:34;83,699;
27.03.2024;07:24;83,699;
27.03.2024;07:14;83,696;
27.03.2024;07:04;83,695;
27.03.2024;06:54;83,695;
27.03.2024;06:44;83,693;
27.03.2024;06:34;83,692;
27.03.2024;06:24;83,690;
27.03.2024;06:14;83,689;
27.03.2024;06:04;83,686;
27.03.2024;05:54;83,686;
27.03.2024;05:44;83,684;
27.03.2024;05:34;83,683;
27.03.2024;05:24;83,685;
27.03.2024;05:14;83,686;
27.03.2024;05:04;83,684;
27.03.2024;04:54;83,685;
27.03.2024;04:44;83,686;
27.03.2024;04:34;83,687;
27.03.2024;04:24;83,688;
27.03.2024;04:14;83,690;
27.03.2024;04:04;83,691;
27.03.2024;03:54;83,693;
27.03.2024;03:44;83,696;
27.03.2024;03:34;83,697;
27.03.2024;03:24;83,697;
27.03.2024;03:14;83,700;
27.03.2024;03:04;83,700;
27.03.2024;02:54;83,700;
27.03.2024;02:44;83,700;
27.03.2024;02:34;83,701;
27.03.2024;02:24;83,700;
27.03.2024;02:14;83,700;
27.03.2024;02:04;83,699;
27.03.2024;01:54;83,699;
27.03.2024;01:44;83,699;
27.03.2024;01:34;83,699;
27.03.2024;01:24;83,700;
27.03.2024;01:14;83,700;
27.03.2024;01:04;83,701;
27.03.2024;00:54;83,702;
27.03.2024;00:44;83,704;
27.03.2024;00:34;83,705;
27.03.2024;00:24;83,705;
27.03.2024;00:14;83,706;
27.03.2024;00:04;83,712;
26.03.2024;23:54;83,708;
26.03.2024;23:44;83,708;
26.03.2024;23:34;83,708;
26.03.2024;23:24;83,708;
26.03.2024;23:14;83,708;
26.03.2024;23:04;83,708;
26.03.2024;22:54;83,707;
26.03.2024;22:44;83,708;
26.03.2024;22:34;83,707;
26.03.2024;22:24;83,708;
26.03.2024;22:14;83,707;
26.03.2024;22:04;83,708;
26.03.2024;21:54;83,707;
26.03.2024;21:44;83,706;
26.03.2024;21:34;83,706;
26.03.2024;21:24;83,706;
26.03.2024;21:14;83,706;
26.03.2024;21:04;83,705;
26.03.2024;20:54;83,706;
26.03.2024;20:44;83,706;
26.03.2024;20:34;83,705;
26.03.2024;20:24;83,705;
26.03.2024;20:14;83,705;
26.03.2024;20:04;83,705;
26.03.2024;19:54;83,705;
26.03.2024;19:44;83,705;
26.03.2024;19:34;83,705;
26.03.2024;19:24;83,705;
26.03.2024;19:14;83,705;
26.03.2024;19:04;83,704;
26.03.2024;18:54;83,705;
26.03.2024;18:44;83,705;
26.03.2024;18:34;83,706;
26.03.2024;18:24;83,705;
26.03.2024;18:14;83,705;
26.03.2024;18:04;83,706;
26.03.2024;17:54;83,706;
26.03.2024;17:44;83,706;
26.03.2024;17:34;83,706;
26.03.2024;17:24;83,706;
26.03.2024;17:14;83,707;
26.03.2024;17:04;83,706;
26.03.2024;16:54;83,707;
26.03.2024;16:44;83,706;
26.03.2024;16:34;83,707;
26.03.2024;16:24;83,707;
26.03.2024;16:14;83,707;
26.03.2024;16:04;83,708;
26.03.2024;15:54;83,708;
26.03.2024;15:44;83,708;
26.03.2024;15:34;83,708;
26.03.2024;15:24;83,709;
26.03.2024;15:14;83,709;
26.03.2024;15:04;83,709;
26.03.2024;14:54;83,710;
26.03.2024;14:44;83,709;
26.03.2024;14:34;83,709;
26.03.2024;14:24;83,709;
26.03.2024;14:14;83,710;
26.03.2024;14:04;83,709;
26.03.2024;13:54;83,709;
26.03.2024;13:44;83,709;
26.03.2024;13:34;83,709;
26.03.2024;13:24;83,709;
26.03.2024;13:14;83,706;
26.03.2024;13:04;83,709;
26.03.2024;12:54;83,708;
26.03.2024;12:44;83,707;
26.03.2024;12:34;83,707;
26.03.2024;12:24;83,708;
26.03.2024;12:14;83,707;
26.03.2024;12:04;83,707;
26.03.2024;11:54;83,706;
26.03.2024;11:44;83,706;
26.03.2024;11:34;83,706;
26.03.2024;11:24;83,705;
26.03.2024;11:14;83,706;
26.03.2024;11:04;83,705;
26.03.2024;10:54;83,704;
26.03.2024;10:44;83,706;
26.03.2024;10:34;83,704;
26.03.2024;10:24;83,705;
26.03.2024;10:14;83,705;
26.03.2024;10:04;83,705;
26.03.2024;09:54;83,705;
26.03.2024;09:44;83,705;
26.03.2024;09:34;83,705;
26.03.2024;09:24;83,705;
26.03.2024;09:14;83,704;
26.03.2024;09:04;83,705;
26.03.2024;08:54;83,704;
26.03.2024;08:44;83,705;
26.03.2024;08:34;83,704;
26.03.2024;08:24;83,705;
26.03.2024;08:14;83,704;
26.03.2024;08:04;83,705;
26.03.2024;07:54;83,704;
26.03.2024;07:44;83,705;
26.03.2024;07:34;83,705;
26.03.2024;07:24;83,705;
26.03.2024;07:14;83,705;
26.03.2024;07:04;83,705;
26.03.2024;06:54;83,705;
26.03.2024;06:44;83,705;
26.03.2024;06:34;83,705;
26.03.2024;06:24;83,705;
26.03.2024;06:14;83,705;
26.03.2024;06:04;83,706;
26.03.2024;05:54;83,705;
26.03.2024;05:44;83,705;
26.03.2024;05:34;83,705;
26.03.2024;05:24;83,705;
26.03.2024;05:14;83,704;
26.03.2024;05:04;83,705;
26.03.2024;04:54;83,704;
26.03.2024;04:44;83,706;
26.03.2024;04:34;83,708;
26.03.2024;04:24;83,708;
26.03.2024;04:14;83,708;
26.03.2024;04:04;83,708;
26.03.2024;03:54;83,709;
26.03.2024;03:44;83,710;
26.03.2024;03:34;83,710;
26.03.2024;03:24;83,711;
26.03.2024;03:14;83,711;
26.03.2024;03:04;83,712;
26.03.2024;02:54;83,712;
26.03.2024;02:44;83,714;
26.03.2024;02:34;83,714;
26.03.2024;02:24;83,714;
26.03.2024;02:14;83,716;
26.03.2024;02:04;83,715;
26.03.2024;01:54;83,716;
26.03.2024;01:44;83,716;
26.03.2024;01:34;83,717;
26.03.2024;01:24;83,717;
26.03.2024;01:14;83,717;
26.03.2024;01:04;83,716;
26.03.2024;00:54;83,718;
26.03.2024;00:44;83,717;
26.03.2024;00:34;83,717;
26.03.2024;00:24;83,718;
26.03.2024;00:14;83,717;
26.03.2024;00:04;83,717;
25.03.2024;23:54;83,716;
25.03.2024;23:44;83,716;
25.03.2024;23:34;83,716;
25.03.2024;23:24;83,717;
25.03.2024;23:14;83,716;
25.03.2024;23:04;83,715;
25.03.2024;22:54;83,716;
25.03.2024;22:44;83,716;
25.03.2024;22:34;83,715;
25.03.2024;22:24;83,716;
25.03.2024;22:14;83,717;
25.03.2024;22:04;83,717;
25.03.2024;21:54;83,717;
25.03.2024;21:44;83,717;
25.03.2024;21:34;83,718;
25.03.2024;21:24;83,718;
25.03.2024;21:14;83,717;
25.03.2024;21:04;83,718;
25.03.2024;20:54;83,718;
25.03.2024;20:44;83,717;
25.03.2024;20:34;83,718;
25.03.2024;20:24;83,717;
25.03.2024;20:14;83,717;
25.03.2024;20:04;83,715;
25.03.2024;19:54;83,714;
25.03.2024;19:44;83,714;
25.03.2024;19:34;83,711;
25.03.2024;19:24;83,712;
25.03.2024;19:14;83,709;
25.03.2024;19:04;83,708;
25.03.2024;18:54;83,707;
25.03.2024;18:44;83,707;
25.03.2024;18:34;83,705;
25.03.2024;18:24;83,706;
25.03.2024;18:14;83,706;
25.03.2024;18:04;83,708;
25.03.2024;17:54;83,708;
25.03.2024;17:44;83,709;
25.03.2024;17:34;83,709;
25.03.2024;17:24;83,710;
25.03.2024;17:14;83,711;
25.03.2024;17:04;83,711;
25.03.2024;16:54;83,712;
25.03.2024;16:44;83,714;
25.03.2024;16:34;83,715;
25.03.2024;16:24;83,714;
25.03.2024;16:14;83,715;
25.03.2024;16:04;83,715;
25.03.2024;15:54;83,714;
25.03.2024;15:44;83,714;
25.03.2024;15:34;83,715;
25.03.2024;15:24;83,715;
25.03.2024;15:14;83,716;
25.03.2024;15:04;83,715;
25.03.2024;14:54;83,715;
25.03.2024;14:44;83,715;
25.03.2024;14:34;83,717;
25.03.2024;14:24;83,716;
25.03.2024;14:14;83,717;
25.03.2024;14:04;83,717;
25.03.2024;13:54;83,717;
25.03.2024;13:44;83,718;
25.03.2024;13:34;83,717;
25.03.2024;13:24;83,718;
25.03.2024;13:14;83,717;
25.03.2024;13:04;83,717;
25.03.2024;12:54;83,717;
25.03.2024;12:44;83,718;
25.03.2024;12:34;83,718;
25.03.2024;12:24;83,718;
25.03.2024;12:14;83,718;
25.03.2024;12:04;83,719;
25.03.2024;11:54;83,719;
25.03.2024;11:44;83,719;
25.03.2024;11:34;83,720;
25.03.2024;11:24;83,720;
25.03.2024;11:14;83,719;
25.03.2024;11:04;83,720;
25.03.2024;10:54;83,719;
25.03.2024;10:44;83,720;
25.03.2024;10:34;83,720;
25.03.2024;10:24;83,721;
25.03.2024;10:14;83,720;
25.03.2024;10:04;83,718;
25.03.2024;09:54;83,720;
25.03.2024;09:44;83,721;
25.03.2024;09:34;83,719;
25.03.2024;09:24;83,721;
25.03.2024;09:14;83,720;
25.03.2024;09:04;83,720;
25.03.2024;08:54;83,721;
25.03.2024;08:44;83,722;
25.03.2024;08:34;83,721;
25.03.2024;08:24;83,721;
25.03.2024;08:14;83,721;
25.03.2024;08:04;83,722;
25.03.2024;07:54;83,722;
25.03.2024;07:44;83,722;
25.03.2024;07:34;83,722;
25.03.2024;07:24;83,721;
25.03.2024;07:14;83,721;
25.03.2024;07:04;83,722;
25.03.2024;06:54;83,722;
25.03.2024;06:44;83,722;
25.03.2024;06:34;83,721;
25.03.2024;06:24;83,720;
25.03.2024;06:14;83,722;
25.03.2024;06:04;83,722;
25.03.2024;05:54;83,722;
25.03.2024;05:44;83,722;
25.03.2024;05:34;83,721;
25.03.2024;05:24;83,722;
25.03.2024;05:14;83,721;
25.03.2024;05:04;83,722;
25.03.2024;04:54;83,721;
25.03.2024;04:44;83,721;
25.03.2024;04:34;83,721;
25.03.2024;04:24;83,721;
25.03.2024;04:14;83,721;
25.03.2024;04:04;83,721;
25.03.2024;03:54;83,721;
25.03.2024;03:44;83,720;
25.03.2024;03:34;83,721;
25.03.2024;03:24;83,720;
25.03.2024;03:14;83,720;
25.03.2024;03:04;83,719;
25.03.2024;02:54;83,719;
25.03.2024;02:44;83,719;
25.03.2024;02:34;83,722;
25.03.2024;02:24;83,720;
25.03.2024;02:14;83,720;
25.03.2024;02:04;83,721;
25.03.2024;01:54;83,720;
25.03.2024;01:44;83,720;
25.03.2024;01:34;83,721;
25.03.2024;01:24;83,721;
25.03.2024;01:14;83,721;
25.03.2024;01:04;83,722;
25.03.2024;00:54;83,722;
25.03.2024;00:44;83,723;
25.03.2024;00:34;83,723;
25.03.2024;00:24;83,723;
25.03.2024;00:14;83,723;
25.03.2024;00:04;83,724;
24.03.2024;23:54;83,724;
24.03.2024;23:44;83,724;
24.03.2024;23:34;83,724;
24.03.2024;23:24;83,725;
24.03.2024;23:14;83,725;
24.03.2024;23:04;83,724;
24.03.2024;22:54;83,725;
24.03.2024;22:44;83,725;
24.03.2024;22:34;83,726;
24.03.2024;22:24;83,724;
24.03.2024;22:14;83,725;
24.03.2024;22:04;83,725;
24.03.2024;21:54;83,724;
24.03.2024;21:44;83,724;
24.03.2024;21:34;83,725;
24.03.2024;21:24;83,724;
24.03.2024;21:14;83,724;
24.03.2024;21:04;83,724;
24.03.2024;20:54;83,724;
24.03.2024;20:44;83,722;
24.03.2024;20:34;83,720;
24.03.2024;20:24;83,723;
24.03.2024;20:14;83,722;
24.03.2024;20:04;83,719;
24.03.2024;19:54;83,722;
24.03.2024;19:44;83,722;
24.03.2024;19:34;83,722;
24.03.2024;19:24;83,721;
24.03.2024;19:14;83,721;
24.03.2024;19:04;83,721;
24.03.2024;18:54;83,721;
24.03.2024;18:44;83,721;
24.03.2024;18:34;83,721;
24.03.2024;18:24;83,720;
24.03.2024;18:14;83,721;
24.03.2024;18:04;83,722;
24.03.2024;17:54;83,721;
24.03.2024;17:44;83,721;
24.03.2024;17:34;83,722;
24.03.2024;17:24;83,722;
24.03.2024;17:14;83,722;
24.03.2024;17:04;83,723;
24.03.2024;16:54;83,722;
24.03.2024;16:44;83,724;
24.03.2024;16:34;83,724;
24.03.2024;16:24;83,724;
24.03.2024;16:14;83,724;
24.03.2024;16:04;83,725;
24.03.2024;15:54;83,725;
24.03.2024;15:44;83,724;
24.03.2024;15:34;83,726;
24.03.2024;15:24;83,725;
24.03.2024;15:14;83,725;
24.03.2024;15:04;83,726;
24.03.2024;14:54;83,726;
24.03.2024;14:44;83,726;
24.03.2024;14:34;83,727;
24.03.2024;14:24;83,727;
24.03.2024;14:14;83,727;
24.03.2024;14:04;83,726;
24.03.2024;13:54;83,727;
24.03.2024;13:44;83,726;
24.03.2024;13:34;83,726;
24.03.2024;13:24;83,726;
24.03.2024;13:14;83,725;
24.03.2024;13:04;83,725;
24.03.2024;12:54;83,725;
24.03.2024;12:44;83,726;
24.03.2024;12:34;83,727;
24.03.2024;12:24;83,726;
24.03.2024;12:14;83,726;
24.03.2024;12:04;83,725;
24.03.2024;11:54;83,724;
24.03.2024;11:44;83,725;
24.03.2024;11:34;83,725;
24.03.2024;11:24;83,725;
24.03.2024;11:14;83,724;
24.03.2024;11:04;83,725;
24.03.2024;10:54;83,724;
24.03.2024;10:44;83,723;
24.03.2024;10:34;83,725;
24.03.2024;10:24;83,723;
24.03.2024;10:14;83,725;
24.03.2024;10:04;83,723;
24.03.2024;09:54;83,725;
24.03.2024;09:44;83,724;
24.03.2024;09:34;83,723;
24.03.2024;09:24;83,724;
24.03.2024;09:14;83,724;
24.03.2024;09:04;83,724;
24.03.2024;08:54;83,725;
24.03.2024;08:44;83,725;
24.03.2024;08:34;83,727;
24.03.2024;08:24;83,726;
24.03.2024;08:14;83,726;
24.03.2024;08:04;83,727;
24.03.2024;07:54;83,728;
24.03.2024;07:44;83,728;
24.03.2024;07:34;83,730;
24.03.2024;07:24;83,729;
24.03.2024;07:14;83,729;
24.03.2024;07:04;83,729;
24.03.2024;06:54;83,729;
24.03.2024;06:44;83,729;
24.03.2024;06:34;83,729;
24.03.2024;06:24;83,729;
24.03.2024;06:14;83,730;
24.03.2024;06:04;83,730;
24.03.2024;05:54;83,729;
24.03.2024;05:44;83,729;
24.03.2024;05:34;83,729;
24.03.2024;05:24;83,728;
24.03.2024;05:14;83,729;
24.03.2024;05:04;83,728;
24.03.2024;04:54;83,727;
24.03.2024;04:44;83,728;
24.03.2024;04:34;83,729;
24.03.2024;04:24;83,729;
24.03.2024;04:14;83,728;
24.03.2024;04:04;83,729;
24.03.2024;03:54;83,728;
24.03.2024;03:44;83,728;
24.03.2024;03:34;83,728;
24.03.2024;03:24;83,728;
24.03.2024;03:14;83,728;
24.03.2024;03:04;83,727;
24.03.2024;02:54;83,725;
24.03.2024;02:44;83,727;
24.03.2024;02:34;83,723;
24.03.2024;02:24;83,721;
24.03.2024;02:14;83,721;
24.03.2024;02:04;83,718;
24.03.2024;01:54;83,714;
24.03.2024;01:44;83,712;
24.03.2024;01:34;83,707;
24.03.2024;01:24;83,703;
24.03.2024;01:14;83,700;
24.03.2024;01:04;83,695;
24.03.2024;00:54;83,691;
24.03.2024;00:44;83,687;
24.03.2024;00:34;83,683;
24.03.2024;00:24;83,679;
24.03.2024;00:14;83,676;
24.03.2024;00:04;83,674;
23.03.2024;23:54;83,671;
23.03.2024;23:44;83,670;
23.03.2024;23:34;83,669;
23.03.2024;23:24;83,670;
23.03.2024;23:14;83,670;
23.03.2024;23:04;83,672;
23.03.2024;22:54;83,674;
23.03.2024;22:44;83,677;
23.03.2024;22:34;83,679;
23.03.2024;22:24;83,683;
23.03.2024;22:14;83,687;
23.03.2024;22:04;83,691;
23.03.2024;21:54;83,695;
23.03.2024;21:44;83,699;
23.03.2024;21:34;83,704;
23.03.2024;21:24;83,707;
23.03.2024;21:14;83,710;
23.03.2024;21:04;83,713;
23.03.2024;20:54;83,716;
23.03.2024;20:44;83,718;
23.03.2024;20:34;83,720;
23.03.2024;20:24;83,721;
23.03.2024;20:14;83,722;
23.03.2024;20:04;83,722;
23.03.2024;19:54;83,723;
23.03.2024;19:44;83,722;
23.03.2024;19:34;83,723;
23.03.2024;19:24;83,722;
23.03.2024;19:14;83,722;
23.03.2024;19:04;83,721;
23.03.2024;18:54;83,722;
23.03.2024;18:44;83,722;
23.03.2024;18:34;83,721;
23.03.2024;18:24;83,721;
23.03.2024;18:14;83,721;
23.03.2024;18:04;83,722;
23.03.2024;17:54;83,722;
23.03.2024;17:44;83,722;
23.03.2024;17:34;83,722;
23.03.2024;17:24;83,722;
23.03.2024;17:14;83,721;
23.03.2024;17:04;83,723;
23.03.2024;16:54;83,722;
23.03.2024;16:44;83,723;
23.03.2024;16:34;83,723;
23.03.2024;16:24;83,724;
23.03.2024;16:14;83,723;
23.03.2024;16:04;83,724;
23.03.2024;15:54;83,723;
23.03.2024;15:44;83,723;
23.03.2024;15:34;83,724;
23.03.2024;15:24;83,724;
23.03.2024;15:14;83,725;
23.03.2024;15:04;83,724;
23.03.2024;14:54;83,725;
23.03.2024;14:44;83,724;
23.03.2024;14:34;83,725;
23.03.2024;14:24;83,725;
23.03.2024;14:14;83,724;
23.03.2024;14:04;83,724;
23.03.2024;13:54;83,725;
23.03.2024;13:44;83,725;
23.03.2024;13:34;83,725;
23.03.2024;13:24;83,724;
23.03.2024;13:14;83,724;
23.03.2024;13:04;83,724;
23.03.2024;12:54;83,724;
23.03.2024;12:44;83,724;
23.03.2024;12:34;83,724;
23.03.2024;12:24;83,725;
23.03.2024;12:14;83,724;
23.03.2024;12:04;83,725;
23.03.2024;11:54;83,724;
23.03.2024;11:44;83,724;
23.03.2024;11:34;83,724;
23.03.2024;11:24;83,724;
23.03.2024;11:14;83,725;
23.03.2024;11:04;83,724;
23.03.2024;10:54;83,725;
23.03.2024;10:44;83,724;
23.03.2024;10:34;83,724;
23.03.2024;10:24;83,724;
23.03.2024;10:14;83,725;
23.03.2024;10:04;83,724;
23.03.2024;09:54;83,725;
23.03.2024;09:44;83,725;
23.03.2024;09:34;83,726;
23.03.2024;09:24;83,725;
23.03.2024;09:14;83,724;
23.03.2024;09:04;83,725;
23.03.2024;08:54;83,726;
23.03.2024;08:44;83,725;
23.03.2024;08:34;83,726;
23.03.2024;08:24;83,725;
23.03.2024;08:14;83,727;
23.03.2024;08:04;83,726;
23.03.2024;07:54;83,726;
23.03.2024;07:44;83,725;
23.03.2024;07:34;83,725;
23.03.2024;07:24;83,726;
23.03.2024;07:14;83,726;
23.03.2024;07:04;83,726;
23.03.2024;06:54;83,725;
23.03.2024;06:44;83,725;
23.03.2024;06:34;83,726;
23.03.2024;06:24;83,725;
23.03.2024;06:14;83,724;
23.03.2024;06:04;83,724;
23.03.2024;05:54;83,726;
23.03.2024;05:44;83,724;
23.03.2024;05:34;83,724;
23.03.2024;05:24;83,724;
23.03.2024;05:14;83,724;
23.03.2024;05:04;83,724;
23.03.2024;04:54;83,723;
23.03.2024;04:44;83,724;
23.03.2024;04:34;83,723;
23.03.2024;04:24;83,723;
23.03.2024;04:14;83,722;
23.03.2024;04:04;83,722;
23.03.2024;03:54;83,722;
23.03.2024;03:44;83,721;
23.03.2024;03:34;83,720;
23.03.2024;03:24;83,721;
23.03.2024;03:14;83,720;
23.03.2024;03:04;83,720;
23.03.2024;02:54;83,720;
23.03.2024;02:44;83,720;
23.03.2024;02:34;83,719;
23.03.2024;02:24;83,719;
23.03.2024;02:14;83,718;
23.03.2024;02:04;83,718;
23.03.2024;01:54;83,719;
23.03.2024;01:44;83,717;
23.03.2024;01:34;83,718;
23.03.2024;01:24;83,717;
23.03.2024;01:14;83,717;
23.03.2024;01:04;83,717;
23.03.2024;00:54;83,716;
23.03.2024;00:44;83,716;
23.03.2024;00:34;83,716;
23.03.2024;00:24;83,717;
23.03.2024;00:14;83,715;
23.03.2024;00:04;83,716;
22.03.2024;23:54;83,715;
22.03.2024;23:44;83,715;
22.03.2024;23:34;83,715;
22.03.2024;23:24;83,717;
22.03.2024;23:14;83,716;
22.03.2024;23:04;83,717;
22.03.2024;22:54;83,716;
22.03.2024;22:44;83,717;
22.03.2024;22:34;83,718;
22.03.2024;22:24;83,718;
22.03.2024;22:14;83,718;
22.03.2024;22:04;83,718;
22.03.2024;21:54;83,720;
22.03.2024;21:44;83,719;
22.03.2024;21:34;83,720;
22.03.2024;21:24;83,720;
22.03.2024;21:14;83,720;
22.03.2024;21:04;83,721;
22.03.2024;20:54;83,721;
22.03.2024;20:44;83,722;
22.03.2024;20:34;83,722;
22.03.2024;20:24;83,722;
22.03.2024;20:14;83,721;
22.03.2024;20:04;83,721;
22.03.2024;19:54;83,722;
22.03.2024;19:44;83,722;
22.03.2024;19:34;83,721;
22.03.2024;19:24;83,722;
22.03.2024;19:14;83,721;
22.03.2024;19:04;83,720;
22.03.2024;18:54;83,720;
22.03.2024;18:44;83,721;
22.03.2024;18:34;83,721;
22.03.2024;18:24;83,721;
22.03.2024;18:14;83,722;
22.03.2024;18:04;83,720;
22.03.2024;17:54;83,721;
22.03.2024;17:44;83,721;
22.03.2024;17:34;83,721;
22.03.2024;17:24;83,722;
22.03.2024;17:14;83,722;
22.03.2024;17:04;83,720;
22.03.2024;16:54;83,722;
22.03.2024;16:44;83,721;
22.03.2024;16:34;83,723;
22.03.2024;16:24;83,722;
22.03.2024;16:14;83,722;
22.03.2024;16:04;83,723;
22.03.2024;15:54;83,723;
22.03.2024;15:44;83,724;
22.03.2024;15:34;83,723;
22.03.2024;15:24;83,724;
22.03.2024;15:14;83,725;
22.03.2024;15:04;83,725;
22.03.2024;14:54;83,727;
22.03.2024;14:44;83,726;
22.03.2024;14:34;83,728;
22.03.2024;14:24;83,728;
22.03.2024;14:14;83,725;